TimeEST,TemperatureF,Dew PointF,Humidity,Sea Level PressureIn,VisibilityMPH,Wind Direction,Wind SpeedMPH,Gust SpeedMPH,PrecipitationIn,Events,Conditions,WindDirDegrees,DateUTC
12:54 AM,44.1,26.1,49,30.12,10.0,South,8.1,-,N/A,,Scattered Clouds,180,2012-11-27 05:54:00
1:54 AM,46.0,28.9,51,30.12,10.0,SSW,4.6,-,N/A,,Overcast,210,2012-11-27 06:54:00
2:54 AM,46.0,28.9,51,30.13,10.0,SSW,3.5,-,N/A,,Overcast,210,2012-11-27 07:54:00
3:54 AM,48.0,28.0,46,30.11,10.0,WSW,3.5,-,N/A,,Overcast,250,2012-11-27 08:54:00
4:54 AM,48.0,30.9,52,30.11,10.0,SSW,4.6,-,0.00,Rain,Light Rain,200,2012-11-27 09:54:00
5:54 AM,48.0,30.0,50,30.11,10.0,Calm,Calm,-,0.00,,Overcast,0,2012-11-27 10:54:00
6:54 AM,46.0,37.9,73,30.12,10.0,SSW,3.5,-,0.00,Rain,Light Rain,210,2012-11-27 11:54:00
7:54 AM,46.0,39.0,76,30.13,10.0,Calm,Calm,-,0.00,Rain,Light Rain,0,2012-11-27 12:54:00
8:54 AM,48.0,37.0,66,30.14,10.0,Calm,Calm,-,0.00,,Overcast,0,2012-11-27 13:54:00
9:54 AM,48.0,39.0,71,30.15,10.0,SW,3.5,-,N/A,,Overcast,220,2012-11-27 14:54:00
10:54 AM,50.0,37.9,63,30.14,10.0,Calm,Calm,-,N/A,,Overcast,0,2012-11-27 15:54:00
11:54 AM,50.0,37.0,61,30.13,10.0,NW,3.5,-,0.00,Rain,Light Rain,310,2012-11-27 16:54:00
12:54 PM,51.1,37.9,61,30.12,10.0,NNW,5.8,-,0.00,,Overcast,340,2012-11-27 17:54:00
1:54 PM,48.9,42.1,77,30.12,8.0,Calm,Calm,-,0.01,Rain,Light Rain,0,2012-11-27 18:54:00
2:54 PM,46.9,44.1,90,30.13,5.0,NNE,5.8,-,0.03,Rain,Light Rain,30,2012-11-27 19:54:00
3:54 PM,46.0,44.1,93,30.13,7.0,ENE,4.6,-,0.00,Rain,Light Rain,60,2012-11-27 20:54:00
4:15 PM,46.4,44.6,93,30.13,5.0,ENE,6.9,-,0.00,Rain,Light Rain,60,2012-11-27 21:15:00
4:54 PM,46.0,44.1,93,30.15,5.0,ENE,5.8,-,0.00,,Overcast,70,2012-11-27 21:54:00
5:14 PM,46.4,44.6,93,30.15,5.0,East,4.6,-,N/A,,Overcast,80,2012-11-27 22:14:00
5:54 PM,46.0,44.1,93,30.16,4.0,ENE,5.8,-,N/A,,Overcast,70,2012-11-27 22:54:00
6:22 PM,46.4,44.6,93,30.16,6.0,ENE,8.1,-,N/A,,Overcast,60,2012-11-27 23:22:00
6:54 PM,46.0,44.1,93,30.18,7.0,NNE,5.8,-,N/A,,Overcast,20,2012-11-27 23:54:00
7:54 PM,44.1,41.0,89,30.21,8.0,NE,9.2,-,N/A,,Overcast,50,2012-11-28 00:54:00
8:11 PM,44.6,41.0,87,30.21,6.0,NNE,9.2,-,N/A,,Overcast,30,2012-11-28 01:11:00
8:36 PM,42.8,39.2,87,30.21,7.0,NE,11.5,-,N/A,,Mostly Cloudy,50,2012-11-28 01:36:00
8:54 PM,43.0,39.9,89,30.22,8.0,NE,9.2,-,N/A,,Mostly Cloudy,50,2012-11-28 01:54:00
9:54 PM,42.1,37.9,85,30.22,10.0,ENE,8.1,-,N/A,,Mostly Cloudy,60,2012-11-28 02:54:00
10:54 PM,42.1,37.9,85,30.23,10.0,NNE,6.9,-,N/A,,Overcast,30,2012-11-28 03:54:00
11:25 PM,42.8,39.2,87,30.23,9.0,NNE,3.5,-,N/A,,Mostly Cloudy,30,2012-11-28 04:25:00
11:54 PM,42.1,39.0,89,30.25,8.0,NNE,4.6,-,N/A,,Mostly Cloudy,30,2012-11-28 04:54:00